This demonstration page uses our WeatherBlox Daily Observations layout. Learn more.

41.55636, -103.73856

Hourly Observations for January 17, 2020

Temp ( °F °C ) Dew Point ( °F °C ) Humidity (%) Winds ( mph kmh ) Pressure ( in mb ) Visibility ( mi km ) Precip ( " mm )
12:58 am 00:58 Mostly Cloudy 35 1.4 6 -14.7 29 29 ENE 3 6 30.14 1021 7 11.26538 0 0
1:59 am 01:59 Mostly Cloudy 35 1.4 6 -14.2 31 31 E 6 9 30.14 1021 10 16.0934 0 0
2:58 am 02:58 Mostly Cloudy 32 0.1 13 -10.8 44 44 E 8 13 30.12 1020 10 16.0934 0 0
3:58 am 03:58 Clear 32 -0.2 17 -8.2 55 55 S 17 28 30.09 1019 10 16.0934 0 0
4:58 am 04:58 Mostly Cloudy 31 -0.4 21 -5.9 67 67 SSW 17 28 30.08 1019 10 16.0934 0 0
5:58 am 05:58 Partly Cloudy 31 -0.8 22 -5.5 71 71 S 12 19 30.04 1017 10 16.0934 0 0
6:58 am 06:58 Mostly Cloudy 30 -1.2 22 -5.4 73 73 S 10 17 30.01 1016 10 16.0934 0 0
7:58 am 07:58 Mostly Cloudy 29 -1.7 23 -5.2 77 77 S 9 15 29.96 1014 10 16.0934 0 0
8:58 am 08:58 Mostly Cloudy 28 -2 22 -5.3 78 78 SSE 13 20 29.91 1013 10 16.0934 0 0
9:58 am 09:58 Mostly Cloudy 26 -3.1 22 -5.5 84 84 SE 8 13 29.91 1013 10 16.0934 0 0
10:58 am 10:58 Mostly Cloudy 26 -3.5 22 -5.5 86 86 SE 6 9 29.88 1012 10 16.0934 0 0
11:58 am 11:58 Mostly Cloudy 24 -4.4 22 -5.8 90 90 SSE 9 15 29.87 1011 10 16.0934 0 0
12:58 pm 12:58 Mostly Cloudy 25 -4 22 -5.8 87 87 S 7 11 29.85 1011 10 16.0934 0 0
1:58 pm 13:58 Clear 23 -5 21 -6.1 92 92 SSW 6 9 29.84 1010 10 16.0934 0 0
2:58 pm 14:58 Mostly Cloudy 25 -3.9 23 -5 92 92 SSW 6 9 29.82 1010 10 16.0934 0 0
3:58 pm 15:58 Mostly Cloudy 27 -2.6 23 -4.8 85 85 Calm 29.81 1009 10 16.0934 0 0
4:58 pm 16:58 Mostly Cloudy 29 -1.4 24 -4.7 79 79 SW 8 13 29.76 1008 10 16.0934 0 0
5:58 pm 17:58 Mostly Cloudy 31 -0.4 24 -4.2 76 76 SSW 8 13 29.74 1007 10 16.0934 0 0
6:58 pm 18:58 Mostly Cloudy 32 -0.2 24 -4.4 74 74 W 6 9 29.75 1008 10 16.0934 0 0
7:58 pm 19:58 Mostly Cloudy 38 3.1 24 -4.2 59 59 W 16 26 29.75 1007 10 16.0934 0 0
8:58 pm 20:58 Mostly Cloudy 39 4.1 30 -1 70 70 SW 3 6 29.71 1006 10 16.0934 0 0
9:58 pm 21:58 Partly Cloudy 42 5.7 31 -0.3 66 66 WNW 3 6 29.71 1006 10 16.0934 0 0
10:58 pm 22:58 Mostly Sunny 44 6.5 25 -4.1 47 47 WNW 20 31 29.72 1006 10 16.0934 0 0
11:58 pm 23:58 Partly Cloudy 40 4.3 25 -4.1 55 55 W 18 30 29.79 1009 10 16.0934 0 0

Powered by AerisWeather